If you wish to contribute or participate in the discussions about articles you are invited to join SKYbrary as a registered user

 Actions

Ishigaki Airport

From SKYbrary Wiki

ROIG
Airport
ICAO: ROIG – IATA: ISG
Summary
Name Ishigaki Airport
Region Asia and Pacific
Territory Japan JP.gif
Location Shiraho, Okinawa
Serving Ishigaki
Elevation 26.213 m
86 ft
86 ft26.213 m
Coordinates 24° 23' 26.97" N, 124° 14' 45.14" E
Runways
Designator Length Width Surface ROPS
4/22 1500 m4,921.26 ft
46 m150.919 ft
ASP yes/yes


METAR
Observation ROIG 190500Z 35015G28KT 320V030 9000 -SHRA BKN022 BKN028 25/24 Q1003
Station Ishigakijima
Date/Time 19 September 2019 05:00:00
Wind direction 350°
Wind speed 15 kts
Lowest cloud amount broken clouds
Temperature 25°C
Dew point 24°C
Humidity 94%
QNH 1003 hPa
Weather condition n/a

New Ishigaki Airport, also branded as Painushima Ishigaki Airport, is a regional airport located in the Shiraho district of Ishigaki, Okinawa Prefecture, Japan.

Climatology

Humid Sub-tropical climate (Köppen climate classification Cwa)

Maps

Terrain

Loading map...

Airport Layout

Loading map...


Accidents & Serious Incidents at or in vicinity of ROIG

None on SKYbrary